Location: LDNL
(36.4545°S, 141.6685°E)
Time: 21:46:54
(UTC+11:00)

Transit 2A Rocket - All Passes

Search period start: 30 January 2023 00:00
Search period end: 09 February 2023 00:00
Orbit: 585 x 915 km, 66.7° (Epoch: 29 January)

Date Brightness Start Highest point End Pass type
(mag) Time Alt. Az. Time Alt. Az. Time Alt. Az.
30 Jan - 00:33:10 10° WSW 00:36:19 20° WNW 00:39:26 10° NNW visible
30 Jan - 13:20:38 10° N 13:26:03 48° ENE 13:31:03 10° SE daylight
30 Jan - 15:04:30 10° WNW 15:08:44 23° SW 15:12:45 10° S daylight
30 Jan - 22:07:52 10° S 22:10:48 17° SE 22:13:41 10° E visible
30 Jan - 23:49:25 10° SW 23:53:29 40° WNW 23:57:30 10° N visible
31 Jan - 12:38:30 10° NNE 12:43:08 27° ENE 12:47:29 10° SE daylight
31 Jan - 14:20:22 10° NW 14:25:31 38° WSW 14:30:17 10° S daylight
31 Jan - 23:06:10 10° SSW 23:10:32 86° WNW 23:14:49 10° NNE visible
01 Feb - 11:57:23 10° NE 12:00:18 14° ENE 12:03:06 10° ESE daylight
01 Feb - 13:36:49 10° NW 13:42:24 67° WSW 13:47:31 10° SSE daylight
01 Feb - 22:23:16 10° SSW 22:27:28 46° ESE 22:31:36 10° NE visible
02 Feb - 00:07:29 10° WSW 00:09:28 13° WNW 00:11:27 10° NW visible
02 Feb - 12:53:47 10° NNW 12:59:22 69° ENE 13:04:29 10° SSE daylight
02 Feb - 14:38:54 10° W 14:42:16 17° SW 14:45:28 10° S daylight
02 Feb - 21:40:42 10° S 21:44:17 24° SE 21:47:49 10° ENE visible
02 Feb - 23:23:04 10° SW 23:26:41 26° WNW 23:30:17 10° NNW visible
03 Feb - 12:11:16 10° N 12:16:24 37° ENE 12:21:09 10° SE daylight
03 Feb - 13:54:19 10° WNW 13:58:58 27° SW 14:03:17 10° S daylight
03 Feb - 20:58:42 10° SSE 21:00:57 14° SE 21:03:08 10° E daylight
03 Feb - 22:39:33 10° SW 22:43:48 55° WNW 22:48:00 10° NNE visible
04 Feb - 11:29:28 10° NNE 11:33:30 21° ENE 11:37:20 10° ESE daylight
04 Feb - 13:10:27 10° NW 13:15:47 47° WSW 13:20:41 10° SSE daylight
04 Feb - 21:56:28 10° SSW 22:00:48 71° ESE 22:05:05 10° NNE visible
05 Feb - 10:49:35 10° ENE 10:50:42 11° ENE 10:51:49 10° E daylight
05 Feb - 12:27:07 10° NNW 12:32:41 85° WSW 12:37:48 10° SSE daylight
05 Feb - 14:13:52 10° WSW 14:15:49 12° SW 14:17:43 10° SSW daylight
05 Feb - 21:13:41 10° S 21:17:41 35° ESE 21:21:38 10° NE visible
05 Feb - 22:56:58 10° WSW 22:59:51 18° WNW 23:02:44 10° NNW visible
06 Feb - 11:44:16 10° N 11:49:41 53° ENE 11:54:40 10° SE daylight
06 Feb - 13:28:30 10° W 13:32:25 20° SW 13:36:08 10° S daylight
06 Feb - 20:31:17 10° S 20:34:26 19° SE 20:37:32 10° E daylight
06 Feb - 22:13:04 10° SW 22:17:00 35° WNW 22:20:57 10° N visible
07 Feb - 11:02:00 10° NNE 11:06:45 29° ENE 11:11:10 10° SE daylight
07 Feb - 12:44:14 10° WNW 12:49:10 34° WSW 12:53:45 10° S daylight
07 Feb - 19:50:03 10° SSE 19:51:02 11° SE 19:52:01 10° ESE daylight
07 Feb - 21:29:45 10° SSW 21:34:05 76° WNW 21:38:23 10° NNE visible
08 Feb - 10:20:40 10° NE 10:23:53 16° ENE 10:26:58 10° ESE daylight
08 Feb - 12:00:35 10° NW 12:06:02 60° WSW 12:11:02 10° SSE daylight
08 Feb - 20:46:48 10° SSW 20:51:02 52° ESE 20:55:14 10° NE daylight
08 Feb - 22:31:37 10° W 22:32:59 11° WNW 22:34:22 10° NW visible
